Regional Weather Roundup
Issued by NWS

Home | Current Version | Previous Version | Text Only | Print | Product List | Glossary Off
Versions: 1 2 3 4 5 6 7 8 9 10 11 12 13 14 15 16 17 18 19 20 21 22 23 24 25 26 27 28 29 30 31 32 33 34 35 36 37 38 39 40 41 42 43 44 45 46 47 48 49 50

197
ASUS43 KFSD 221602
RWRSD

WEATHER ROUNDUP FOR SOUTH DAKOTA
NATIONAL WEATHER SERVICE SIOUX FALLS SD
1000 AM CST WED NOV 22 2017

NOTE: "FAIR" INDICATES FEW OR NO CLOUDS BELOW 12,000 FEET WITH NO
SIGNIFICANT WEATHER AND/OR OBSTRUCTIONS TO VISIBILITY.


SDZ001>005-009-010-012>017-221700-
NORTHWEST AND NORTH CENTRAL SOUTH DAKOTA

CITY           SKY/WX    TMP DP  RH WIND       PRES   REMARKS
BUFFALO          N/A     43  28  55 W9        29.89F
FAITH            N/A     28  19  69 SW7       29.97S WCI  21
MOBRIDGE       CLOUDY    28  18  66 S13       29.96F WCI  17
$$

SDZ012>016-024>037-041>051-057-063-072>074-221700-
SOUTHWEST AND SOUTH CENTRAL SOUTH DAKOTA

CITY           SKY/WX    TMP DP  RH WIND       PRES   REMARKS
RAPID CTY ARPT SUNNY     47  28  47 CALM      30.02S
PIERRE         CLOUDY    26  18  71 SE9       30.02F WCI  17
CUSTER         CLOUDY    52  29  41 W14       30.11R
ELLSWORTH AFB  SUNNY     53  30  42 W3        30.01R
PHILIP         SUNNY     35  27  72 W7        30.02F WCI  29
PINE RIDGE     CLOUDY    48  33  56 W7        30.09R
SPEARFISH      FAIR      59  36  41 W20G26    30.04R
WINNER         FAIR      37  25  61 S12       30.06F
$$

SDZ004>011-016>023-039-040-221700-
NORTHEAST SOUTH DAKOTA

CITY           SKY/WX    TMP DP  RH WIND       PRES   REMARKS
ABERDEEN       CLOUDY    22  13  68 S17       30.08F WCI   8
WATERTOWN      CLOUDY    21  13  71 S15       30.12F WCI   8
BROOKINGS      CLOUDY    22  13  68 S18       30.17F WCI   7
SISSETON         N/A     22  15  75 S13       30.12F WCI  10
$$

SDZ017-020-022-023-036>040-048>070-221700-
SOUTHEAST SOUTH DAKOTA

CITY           SKY/WX    TMP DP  RH WIND       PRES   REMARKS
SIOUX FALLS    MOSUNNY   26  12  55 S14       30.21F WCI  14
HURON          CLOUDY    24  14  65 S15G22    30.12F WCI  11
CHAMBERLAIN    CLOUDY    31  21  66 S7        30.08F WCI  25
MITCHELL       CLOUDY    26  15  63 S15       30.15F WCI  14
YANKTON        CLOUDY    27  17  66 S14       30.21F WCI  16
$$

ABBREVIATIONS USED IN REMARKS
   TC - TEMPERATURE IN CELSIUS
  WCI - WIND CHILL INDEX
   HX - HEAT INDEX
  VSB - VISIBILITY





USA.gov is the U.S. government's official web portal to all federal, state and local government web resources and services.